Location: Albany
(35.0000°S, 118.0000°E)
Time: 17:04:16
(UTC-04:00)

Amateur Radio Satellites - All Passes

Search period start: 21 April 2015 16:34
Search period end: 22 April 2015 16:34
Location: Albany, 35.0000°S, 118.0000°E

Satellite Date Start Highest point End Downlink Frequencies (MHz)
Time Altitude Azimuth
Cubesat XI-IV 21 Apr 16:38:03 16:41:55 21° 113° (ESE) 16:45:59 437.490
GONETS M04 21 Apr 17:04:57 17:13:42 67° 260° (W) 17:22:28
VERMONT LUNAR 21 Apr 17:15:05 17:18:09 36° 30° (NNE) 17:21:16 437.305
CUBESAT XI-V 21 Apr 17:18:04 17:19:17 11° 91° (E) 17:20:51 437.345
Cosmos 2499 21 Apr 17:18:43 17:23:24 20° 95° (E) 17:28:28 435.465 / 435.565
M-CUBED/EXP-1 PRIME 21 Apr 17:22:02 17:23:54 13° 82° (E) 17:26:04 437.505
MOZHAYETS 4 21 Apr 17:29:28 17:33:43 35° 252° (WSW) 17:37:55
CUSAT 1 21 Apr 17:44:51 17:52:49 57° 259° (W) 17:59:30 437.405
DANDE 21 Apr 17:52:51 18:01:19 64° 260° (W) 18:08:36 436.750
PCSat 21 Apr 18:04:10 18:09:33 60° 119° (ESE) 18:14:55 145.827
AUBIESAT-1 21 Apr 18:07:12 18:10:58 42° 76° (ENE) 18:15:02 437.475
CUTE-I 21 Apr 18:08:15 18:13:29 53° 280° (W) 18:18:48 437.470
RS-15 21 Apr 18:09:44 18:17:25 17° 202° (SSW) 18:24:31 29.354- 29.394
PRISM 21 Apr 18:12:42 18:16:20 27° 84° (E) 18:19:59 437.425
BRITE-PL 21 Apr 18:15:05 18:17:37 14° 115° (ESE) 18:20:29 437.365/2234.400
Cubesat XI-IV 21 Apr 18:16:37 18:21:43 44° 279° (W) 18:26:53 437.490
GOMX 1 21 Apr 18:28:07 18:29:07 11° 115° (ESE) 18:30:30 467.674
PHONESAT 2.4 21 Apr 18:34:16 18:37:43 55° 28° (NNE) 18:41:12 2401.200-2431.200
STRAND 1 21 Apr 18:44:20 18:49:21 47° 81° (E) 18:54:19 437.568
VERMONT LUNAR 21 Apr 18:52:23 18:55:38 47° 196° (SSW) 18:58:52 437.305
CUBESAT XI-V 21 Apr 18:52:29 18:57:14 61° 255° (WSW) 19:01:54 437.345
M-CUBED/EXP-1 PRIME 21 Apr 18:55:14 18:58:55 40° 250° (WSW) 19:02:51 437.505
Cosmos 2499 21 Apr 19:09:03 19:16:00 57° 259° (W) 19:23:04 435.465 / 435.565
HO-68 21 Apr 19:09:40 19:15:54 34° 114° (ESE) 19:22:17 435.675
GONETS M04 21 Apr 19:11:43 19:12:41 10° 238° (WSW) 19:12:47
DOVE 4 21 Apr 19:23:27 19:27:42 26° 109° (ESE) 19:32:00 437.250
ISS 21 Apr 19:31:24 19:34:24 33° 144° (SE) 19:37:26 145.825
AUBIESAT-1 21 Apr 19:43:27 19:45:35 14° 246° (WSW) 19:47:35 437.475
DANDE 21 Apr 19:44:33 19:45:44 10° 244° (WSW) 19:46:09 436.750
COMPASS 1 21 Apr 19:47:01 19:50:31 27° 108° (ESE) 19:54:07 437.405
PRISM 21 Apr 19:48:21 19:51:40 21° 250° (WSW) 19:54:51 437.425
PCSat 21 Apr 19:49:23 19:52:31 15° 285° (WNW) 19:55:22 145.827
BRITE-PL 21 Apr 19:49:47 19:55:30 79° 282° (WNW) 20:01:17 437.365/2234.400
GOMX 1 21 Apr 20:01:02 20:06:35 89° 95° (E) 20:12:06 467.674
SEEDS 21 Apr 20:04:36 20:08:43 56° 104° (ESE) 20:12:53 437.485
CANX-2 21 Apr 20:05:07 20:09:22 79° 103° (ESE) 20:13:40 2200.000
UWE-3 21 Apr 20:12:12 20:14:42 15° 111° (ESE) 20:17:23 435.000/436.395/437.385
PHONESAT 2.4 21 Apr 20:12:40 20:16:03 41° 192° (SSW) 20:19:27 2401.200-2431.200
CUTE 1.7 + AOD 2 21 Apr 20:14:58 20:19:13 87° 283° (WNW) 20:23:32 437.475
SO-50 21 Apr 20:17:03 20:19:59 18° 132° (SE) 20:23:01 436.795
STRAND 1 21 Apr 20:24:34 20:28:13 19° 247° (WSW) 20:31:39 437.568
VERMONT LUNAR 21 Apr 20:30:32 20:33:32 30° 179° (S) 20:36:33 437.305
RS-15 21 Apr 20:30:58 20:36:52 15° 166° (SSE) 20:42:57 29.354- 29.394
AAUSAT CUBESAT 2 21 Apr 20:32:44 20:36:54 86° 100° (E) 20:41:08 437.432
FUNcube-1 21 Apr 20:33:16 20:36:27 20° 110° (ESE) 20:39:43 145.935
DELFI C3 21 Apr 20:38:17 20:41:48 30° 107° (ESE) 20:45:25 145.870
CINEMA 3 21 Apr 20:40:40 20:45:38 79° 104° (ESE) 20:50:31 145.822/145.860
UKube-1 21 Apr 20:46:24 20:49:11 17° 112° (ESE) 20:52:10 .
Cosmos 2491 21 Apr 20:51:14 20:53:23 11° 101° (E) 20:56:24 435.465 / 435.565
ZACube-1 21 Apr 20:55:45 20:59:51 36° 107° (ESE) 21:03:57 437.345
HO-68 21 Apr 20:56:50 21:03:31 41° 278° (W) 21:10:11 435.675
DOVE 4 21 Apr 21:00:25 21:05:17 35° 276° (W) 21:10:03 437.250
YUBILEINY 21 Apr 21:01:32 21:09:03 32° 108° (ESE) 21:16:46 435.215
AISAT 21 Apr 21:02:50 21:04:49 13° 113° (ESE) 21:07:03 437.250
Oscar 11 21 Apr 21:05:20 21:09:40 88° 282° (WNW) 21:14:04 145.826/435.025
ISS 21 Apr 21:08:12 21:10:38 19° 310° (NW) 21:12:59 145.825
CUBEBUG 2 21 Apr 21:10:29 21:15:11 86° 102° (ESE) 21:19:47 437.445
COMPASS 1 21 Apr 21:23:04 21:26:14 20° 273° (W) 21:29:18 437.405
ESTCUBE 1 21 Apr 21:26:19 21:27:55 12° 114° (ESE) 21:29:47 437.505/2401.250
HUMSAT D 21 Apr 21:27:33 21:31:29 38° 106° (ESE) 21:35:28 437.325/437.525
DX 1 21 Apr 21:31:09 21:35:29 61° 105° (ESE) 21:39:55 434.975-435.025
50 SAT 21 Apr 21:43:58 21:47:36 34° 107° (ESE) 21:51:15 437.505
UWE-3 21 Apr 21:46:31 21:50:56 45° 279° (W) 21:55:16 435.000/436.395/437.385
PHONESAT 2.4 21 Apr 21:51:30 21:54:46 33° 175° (S) 21:58:03 2401.200-2431.200
SO-50 21 Apr 21:56:33 22:00:43 43° 295° (WNW) 22:04:52 436.795
O/OREOS (USA 219) 21 Apr 21:58:06 22:02:07 34° 76° (ENE) 22:06:15 437.305
TIGRISAT 21 Apr 21:59:12 22:02:30 22° 86° (E) 22:05:55 435.000
UNISAT 6 21 Apr 22:01:16 22:04:45 24° 85° (E) 22:08:19 437.425
VERMONT LUNAR 21 Apr 22:08:07 22:11:25 55° 163° (SSE) 22:14:44 437.305
FUNcube-1 21 Apr 22:08:33 22:12:36 32° 276° (W) 22:16:34 145.935
QB50P1 21 Apr 22:09:48 22:11:53 14° 89° (E) 22:14:10 145.935-145.965
DELFI C3 21 Apr 22:14:20 22:17:02 17° 273° (W) 22:19:37 145.870
VELOX 1 21 Apr 22:20:23 22:24:53 85° 283° (WNW) 22:29:27 145.980
UKube-1 21 Apr 22:21:01 22:25:05 36° 278° (W) 22:29:09 .
TISAT 1 21 Apr 22:31:28 22:32:09 10° 114° (ESE) 22:33:05 437.305
QB50P2 21 Apr 22:32:58 22:36:35 27° 84° (E) 22:40:14 145.880/145.840
ZACube-1 21 Apr 22:33:18 22:36:21 17° 272° (W) 22:39:13 437.345
AISAT 21 Apr 22:36:34 22:40:59 53° 280° (W) 22:45:29 437.250
CUBEBUG 1 21 Apr 22:38:55 22:43:20 71° 104° (ESE) 22:47:51 437.445
Cosmos 2491 21 Apr 22:40:15 22:49:03 77° 86° (E) 22:57:56 435.465 / 435.565
ANTELSAT 21 Apr 22:42:29 22:46:49 78° 79° (E) 22:51:10 437.575/2403.000
SPROUT 21 Apr 22:42:29 22:45:28 19° 111° (ESE) 22:48:36 437.525
RS-15 21 Apr 22:43:19 22:54:05 41° 134° (SE) 23:04:29 29.354- 29.394
NANOSAT C BR1 21 Apr 22:53:55 22:58:04 47° 81° (E) 23:02:09 145.865
POPSAT HIP 1 21 Apr 22:55:01 22:59:11 49° 81° (E) 23:03:18 437.405
YUBILEINY 21 Apr 22:57:46 23:06:13 50° 270° (W) 23:14:33 435.215
ESTCUBE 1 21 Apr 22:59:52 23:04:20 58° 280° (W) 23:08:52 437.505/2401.250
HUMSAT D 21 Apr 23:04:55 23:07:26 15° 272° (W) 23:09:46 437.325/437.525
50 SAT 21 Apr 23:20:22 23:22:35 14° 272° (W) 23:24:37 437.505
POLYITAN 1 21 Apr 23:22:36 23:26:54 74° 256° (WSW) 23:31:07 437.675
DUCHIFAT 1 21 Apr 23:29:13 23:33:28 63° 256° (WSW) 23:37:38 145.980
PHONESAT 2.4 21 Apr 23:29:45 23:33:19 76° 159° (SSE) 23:36:54 2401.200-2431.200
TIGRISAT 21 Apr 23:35:38 23:39:16 26° 252° (WSW) 23:42:47 435.000
UNISAT 6 21 Apr 23:37:59 23:41:29 24° 251° (WSW) 23:44:55 437.425
O/OREOS (USA 219) 21 Apr 23:38:22 23:41:41 19° 239° (WSW) 23:44:54 437.305
ITUPSAT 1 21 Apr 23:42:41 23:43:51 11° 115° (ESE) 23:45:20 437.325
BUGSAT 1 21 Apr 23:43:37 23:47:49 60° 255° (WSW) 23:51:53 437.445
QB50P1 21 Apr 23:43:57 23:48:01 40° 253° (WSW) 23:51:58 145.935-145.965
VERMONT LUNAR 21 Apr 23:45:51 23:48:49 29° 328° (NNW) 23:51:47 437.305
AIST 1 21 Apr 23:47:39 23:50:43 20° 91° (E) 23:53:58
TISAT 1 22 Apr 00:03:12 00:07:28 61° 280° (W) 00:11:46 437.305
QB50P2 22 Apr 00:09:03 00:12:22 21° 250° (WSW) 00:15:31 145.880/145.840
BEESAT 22 Apr 00:13:30 00:17:18 25° 110° (ESE) 00:21:15 436.000
SWISSCUBE 22 Apr 00:15:02 00:19:02 28° 110° (ESE) 00:23:10 437.505
SPROUT 22 Apr 00:17:21 00:21:20 33° 277° (W) 00:25:19 437.525
Oscar 19 22 Apr 00:27:56 00:30:40 15° 89° (E) 00:33:41 437.125/150
Cosmos 2504 22 Apr 00:29:07 00:37:02 64° 99° (E) 00:45:30 435.465 / 435.565
NANOSAT C BR1 22 Apr 00:31:31 00:33:31 13° 247° (WSW) 00:35:18 145.865
POPSAT HIP 1 22 Apr 00:32:47 00:34:40 12° 247° (WSW) 00:36:20 437.405
Cosmos 2491 22 Apr 00:40:44 00:47:01 20° 246° (WSW) 00:52:50 435.465 / 435.565
RS-15 22 Apr 00:55:49 01:06:59 56° 292° (WNW) 01:17:31 29.354- 29.394
PHONESAT 2.4 22 Apr 01:08:35 01:11:21 21° 325° (NW) 01:14:03 2401.200-2431.200
ITUPSAT 1 22 Apr 01:16:26 01:21:12 71° 281° (W) 01:26:04 437.325
KKS-1 22 Apr 01:19:26 01:22:45 21° 111° (ESE) 01:26:13 437.445
AIST 1 22 Apr 01:24:26 01:28:13 28° 256° (WSW) 01:32:00
JUGNU 22 Apr 01:26:50 01:28:07 11° 15° (NNE) 01:29:32 437.505
BEESAT 22 Apr 01:50:51 01:55:03 29° 276° (W) 01:59:14 436.000
SWISSCUBE 22 Apr 01:52:50 01:56:52 26° 275° (W) 02:00:51 437.505
Oscar 19 22 Apr 02:05:23 02:10:27 54° 254° (WSW) 02:15:25 437.125/150
STARS 22 Apr 02:23:12 02:27:39 69° 105° (ESE) 02:32:08 437.465
Cosmos 2504 22 Apr 02:23:58 02:30:01 22° 266° (W) 02:35:55 435.465 / 435.565
ITAMSAT 1 22 Apr 02:30:15 02:35:34 77° 79° (E) 02:40:49 435.822/435.867
AO-7 22 Apr 02:34:12 02:37:19 13° 92° (E) 02:41:12 29.400- 29.500
Gurwin Techsat 1B 22 Apr 02:34:59 02:40:23 74° 79° (E) 02:45:43 435.225
MOZHAYETS 4 22 Apr 02:53:20 02:55:19 13° 113° (ESE) 02:57:33
BEESAT 2 22 Apr 02:54:21 02:58:11 52° 64° (ENE) 03:02:03 435.950
KKS-1 22 Apr 02:55:10 02:59:14 31° 276° (W) 03:03:15 437.445
BEESAT 3 22 Apr 02:58:22 03:02:17 75° 63° (ENE) 03:06:14 437.485
JAS-2 22 Apr 03:09:27 03:14:46 26° 86° (E) 03:20:44 435.910
JUGNU 22 Apr 03:12:40 03:16:25 17° 5° (N) 03:20:14 437.505
SRMSAT 22 Apr 03:15:50 03:17:52 12° 14° (NNE) 03:20:01 437.500
GONETS M04 22 Apr 03:19:24 03:27:54 54° 102° (ESE) 03:36:25
AIST 2 22 Apr 03:28:51 03:32:35 37° 66° (ENE) 03:36:21 435.215
HORYU 2 22 Apr 03:32:55 03:37:21 57° 80° (E) 03:41:46 437.375
ITAMSAT 1 22 Apr 04:12:26 04:14:28 12° 244° (WSW) 04:16:11 435.822/435.867
Gurwin Techsat 1B 22 Apr 04:17:21 04:19:47 13° 244° (WSW) 04:21:55 435.225
AO-7 22 Apr 04:23:01 04:31:29 83° 74° (ENE) 04:39:49 29.400- 29.500
MOZHAYETS 4 22 Apr 04:27:38 04:32:07 54° 280° (W) 04:36:40
CUSAT 1 22 Apr 04:30:06 04:33:21 79° 275° (W) 04:36:04 437.405
BEESAT 2 22 Apr 04:34:47 04:36:39 13° 227° (SW) 04:38:22 435.950
DANDE 22 Apr 04:42:06 04:45:43 82° 277° (W) 04:48:36 436.750
AUBIESAT-1 22 Apr 04:53:35 04:56:29 27° 111° (ESE) 04:59:24 437.475
JAS-2 22 Apr 04:53:40 05:00:00 51° 253° (WSW) 05:06:59 435.910
JUGNU 22 Apr 05:00:55 05:04:46 17° 355° (N) 05:08:35 437.505
PRISM 22 Apr 05:01:18 05:03:17 14° 112° (ESE) 05:05:29 437.425
SRMSAT 22 Apr 05:02:26 05:06:21 18° 4° (N) 05:10:17 437.500
Cosmos 2499 22 Apr 05:02:28 05:10:01 42° 104° (ESE) 05:18:06 435.465 / 435.565
AIST 2 22 Apr 05:08:32 05:11:19 17° 229° (SW) 05:14:00 435.215
HORYU 2 22 Apr 05:11:44 05:13:34 12° 246° (WSW) 05:15:09 437.375
GONETS M04 22 Apr 05:17:08 05:24:21 28° 266° (W) 05:31:14
M-CUBED/EXP-1 PRIME 22 Apr 05:41:37 05:44:56 45° 284° (WNW) 05:48:12 437.505
CUBESAT XI-V 22 Apr 05:52:12 05:56:53 88° 102° (ESE) 06:01:41 437.345
STRAND 1 22 Apr 05:56:52 06:01:47 48° 107° (ESE) 06:06:48 437.568
AO-7 22 Apr 06:17:34 06:23:26 20° 237° (WSW) 06:28:54 29.400- 29.500
CUTE-I 22 Apr 06:28:38 06:34:06 82° 78° (ENE) 06:39:30 437.470
AUBIESAT-1 22 Apr 06:29:57 06:31:27 12° 278° (W) 06:32:47 437.475
PRISM 22 Apr 06:34:28 06:38:24 42° 279° (W) 06:42:24 437.425
Cubesat XI-IV 22 Apr 06:37:00 06:42:29 83° 256° (WSW) 06:47:53 437.490
SRMSAT 22 Apr 06:51:01 06:54:51 17° 354° (N) 06:58:39 437.500
JUGNU 22 Apr 06:51:18 06:53:05 11° 346° (NNW) 06:54:47 437.505
Cosmos 2499 22 Apr 06:55:46 07:03:05 36° 269° (W) 07:10:36 435.465 / 435.565
PCSat 22 Apr 07:03:14 07:04:48 12° 76° (ENE) 07:06:46 145.827
STRAND 1 22 Apr 07:37:53 07:41:18 17° 272° (W) 07:44:31 437.568
SEEDS 22 Apr 07:54:20 07:55:58 12° 90° (E) 07:57:50 437.485
CANX-2 22 Apr 07:54:54 07:57:43 18° 88° (E) 08:00:42 2200.000
BRITE-PL 22 Apr 07:59:28 08:04:04 43° 83° (E) 08:08:20 437.365/2234.400
CUTE 1.7 + AOD 2 22 Apr 08:04:23 08:07:33 20° 87° (E) 08:10:50 437.475
GOMX 1 22 Apr 08:07:48 08:11:53 31° 85° (E) 08:15:46 467.674
O/OREOS (USA 219) 22 Apr 08:10:59 08:15:20 39° 115° (ESE) 08:19:41 437.305
CUTE-I 22 Apr 08:11:34 08:13:33 12° 243° (WSW) 08:15:11 437.470
AAUSAT CUBESAT 2 22 Apr 08:20:13 08:23:00 17° 87° (E) 08:25:54 437.432
HO-68 22 Apr 08:27:35 08:34:29 48° 80° (E) 08:41:24 435.675
CINEMA 3 22 Apr 08:40:17 08:43:30 21° 87° (E) 08:46:46 145.822/145.860
SRMSAT 22 Apr 08:42:08 08:43:20 10° 345° (NNW) 08:44:23 437.500
PCSat 22 Apr 08:42:15 08:47:40 75° 243° (WSW) 08:53:08 145.827
Cosmos 2491 22 Apr 08:55:31 09:03:04 32° 108° (ESE) 09:10:45 435.465 / 435.565
TIGRISAT 22 Apr 08:55:53 08:58:19 15° 111° (ESE) 09:00:55 435.000
Oscar 11 22 Apr 08:56:48 09:00:07 21° 86° (E) 09:03:31 145.826/435.025
UNISAT 6 22 Apr 08:58:02 09:00:44 16° 111° (ESE) 09:03:36 437.425
DOVE 4 22 Apr 09:03:13 09:07:42 89° 265° (W) 09:11:55 437.250
CUBEBUG 2 22 Apr 09:06:02 09:09:13 21° 86° (E) 09:12:28 437.445
COMPASS 1 22 Apr 09:08:33 09:12:50 83° 78° (ENE) 09:17:04 437.405
QB50P2 22 Apr 09:23:56 09:26:16 15° 112° (ESE) 09:28:50 145.880/145.840
DX 1 22 Apr 09:24:38 09:26:46 14° 89° (E) 09:29:08 434.975-435.025
SEEDS 22 Apr 09:27:58 09:32:04 45° 254° (WSW) 09:36:08 437.485
CANX-2 22 Apr 09:29:54 09:33:46 32° 253° (WSW) 09:37:34 2200.000
ANTELSAT 22 Apr 09:38:09 09:42:28 45° 106° (ESE) 09:46:46 437.575/2403.000
BRITE-PL 22 Apr 09:39:09 09:42:12 16° 246° (WSW) 09:44:56 437.365/2234.400
CUTE 1.7 + AOD 2 22 Apr 09:39:48 09:43:30 28° 252° (WSW) 09:47:07 437.475
UWE-3 22 Apr 09:39:53 09:43:55 44° 82° (E) 09:47:56 435.000/436.395/437.385
NANOSAT C BR1 22 Apr 09:43:42 09:47:09 24° 109° (ESE) 09:50:42 145.865
POPSAT HIP 1 22 Apr 09:44:59 09:48:30 25° 109° (ESE) 09:52:08 437.405
GOMX 1 22 Apr 09:46:27 09:49:49 20° 248° (WSW) 09:52:53 467.674
O/OREOS (USA 219) 22 Apr 09:51:29 09:54:28 17° 281° (W) 09:57:16 437.305
AAUSAT CUBESAT 2 22 Apr 09:54:56 09:58:43 31° 253° (WSW) 10:02:26 437.432
DELFI C3 22 Apr 09:55:27 09:59:36 84° 78° (ENE) 10:03:42 145.870
YUBILEINY 22 Apr 09:58:12 10:05:59 40° 92° (E) 10:14:01 435.215
FUNcube-1 22 Apr 09:59:54 10:04:04 60° 80° (E) 10:08:12 145.935
UKube-1 22 Apr 10:11:38 10:15:53 46° 81° (E) 10:20:06 .
POLYITAN 1 22 Apr 10:12:06 10:16:20 54° 105° (ESE) 10:20:37 437.675
VELOX 1 22 Apr 10:15:04 10:18:38 24° 85° (E) 10:22:17 145.980
HO-68 22 Apr 10:15:52 10:21:57 30° 245° (WSW) 10:27:52 435.675
CINEMA 3 22 Apr 10:17:09 10:20:43 25° 251° (WSW) 10:24:07 145.822/145.860
DUCHIFAT 1 22 Apr 10:18:00 10:22:14 61° 104° (ESE) 10:26:33 145.980
ZACube-1 22 Apr 10:23:40 10:27:52 66° 256° (WSW) 10:32:00 437.345
BUGSAT 1 22 Apr 10:29:56 10:34:08 59° 105° (ESE) 10:38:26 437.445
TIGRISAT 22 Apr 10:30:23 10:34:45 45° 279° (W) 10:39:03 435.000
SO-50 22 Apr 10:30:37 10:31:56 11° 70° (ENE) 10:33:31 436.795
PCSat 22 Apr 10:30:51 10:32:09 11° 223° (SW) 10:33:07 145.827
AISAT 22 Apr 10:30:54 10:35:05 37° 82° (E) 10:39:14 437.250
CUBEBUG 1 22 Apr 10:32:29 10:35:20 17° 88° (E) 10:38:19 437.445
Oscar 11 22 Apr 10:32:32 10:36:18 28° 252° (WSW) 10:39:58 145.826/435.025
QB50P1 22 Apr 10:32:48 10:37:08 86° 286° (WNW) 10:41:32 145.935-145.965
UNISAT 6 22 Apr 10:32:57 10:37:15 40° 278° (W) 10:41:29 437.425
CUBEBUG 2 22 Apr 10:42:24 10:45:55 25° 251° (WSW) 10:49:18 437.445
HUMSAT D 22 Apr 10:50:19 10:54:28 69° 256° (WSW) 10:58:34 437.325/437.525
Cosmos 2491 22 Apr 10:51:53 11:00:14 48° 270° (W) 11:08:23 435.465 / 435.565
ESTCUBE 1 22 Apr 10:56:05 11:00:22 37° 82° (E) 11:04:38 437.505/2401.250
QB50P2 22 Apr 10:57:44 11:01:51 41° 278° (W) 11:06:00 145.880/145.840
50 SAT 22 Apr 10:58:44 11:02:42 90° 256° (WSW) 11:06:39 437.505
DX 1 22 Apr 10:59:04 11:03:19 44° 253° (WSW) 11:07:28 434.975-435.025
ANTELSAT 22 Apr 11:17:07 11:19:32 14° 271° (W) 11:21:42 437.575/2403.000
BEESAT 2 22 Apr 11:17:57 11:19:52 13° 133° (SE) 11:21:58 435.950
UWE-3 22 Apr 11:18:07 11:20:07 13° 248° (WSW) 11:21:55 435.000/436.395/437.385
NANOSAT C BR1 22 Apr 11:19:20 11:22:56 24° 275° (W) 11:26:27 145.865
POPSAT HIP 1 22 Apr 11:20:47 11:24:20 24° 275° (W) 11:27:48 437.405
BEESAT 3 22 Apr 11:21:02 11:23:38 17° 130° (SE) 11:26:20 437.485
AIST 1 22 Apr 11:34:22 11:38:44 50° 100° (E) 11:43:02
Oscar 19 22 Apr 11:41:44 11:44:54 17° 113° (ESE) 11:48:17 437.125/150
UKube-1 22 Apr 11:49:20 11:51:40 14° 247° (WSW) 11:53:47 .
VELOX 1 22 Apr 11:51:21 11:55:11 27° 251° (WSW) 11:58:53 145.980
POLYITAN 1 22 Apr 11:51:25 11:52:39 11° 270° (W) 11:53:35 437.675
TISAT 1 22 Apr 11:51:40 11:55:16 26° 85° (E) 11:58:52 437.305
YUBILEINY 22 Apr 11:54:47 12:02:50 39° 254° (WSW) 12:10:49 435.215
AIST 2 22 Apr 11:55:17 11:56:30 11° 134° (SE) 11:57:55 435.215
SPROUT 22 Apr 12:07:01 12:11:18 54° 80° (E) 12:15:31 437.525
ISS 22 Apr 12:07:19 12:10:30 59° 45° (NE) 12:13:44 145.825
SO-50 22 Apr 12:07:25 12:12:03 63° 239° (WSW) 12:16:35 436.795
CUBEBUG 1 22 Apr 12:07:44 12:11:51 36° 253° (WSW) 12:15:52 437.445
AISAT 22 Apr 12:08:22 12:11:25 18° 248° (WSW) 12:14:17 437.250
ESTCUBE 1 22 Apr 12:33:45 12:36:59 18° 249° (WSW) 12:40:01 437.505/2401.250
BEESAT 2 22 Apr 12:54:26 12:58:18 50° 296° (WNW) 13:02:11 435.950
BEESAT 3 22 Apr 12:58:07 13:01:47 36° 294° (WNW) 13:05:26 437.485
RS-15 22 Apr 13:02:24 13:12:35 34° 74° (ENE) 13:23:10 29.354- 29.394
Cosmos 2504 22 Apr 13:04:26 13:11:26 56° 88° (E) 13:18:31 435.465 / 435.565
AIST 1 22 Apr 13:14:30 13:15:57 11° 266° (W) 13:17:07
Oscar 19 22 Apr 13:18:48 13:23:52 52° 280° (W) 13:28:58 437.125/150
ITUPSAT 1 22 Apr 13:20:37 13:25:10 39° 82° (E) 13:29:42 437.325
TISAT 1 22 Apr 13:27:37 13:30:56 22° 250° (WSW) 13:34:07 437.305
AO-7 22 Apr 13:29:55 13:34:29 17° 125° (SE) 13:39:30 29.400- 29.500
AIST 2 22 Apr 13:31:28 13:35:35 68° 297° (WNW) 13:39:42 435.215
ITAMSAT 1 22 Apr 13:44:48 13:50:01 83° 102° (ESE) 13:55:21 435.822/435.867
ISS 22 Apr 13:45:04 13:47:09 15° 208° (SSW) 13:49:11 145.825
SPROUT 22 Apr 13:45:17 13:46:57 12° 247° (WSW) 13:48:22 437.525
Gurwin Techsat 1B 22 Apr 13:52:39 13:57:59 83° 104° (ESE) 14:03:24 435.225
BEESAT 22 Apr 13:53:40 13:58:33 89° 251° (WSW) 14:03:23 436.000
SWISSCUBE 22 Apr 13:55:33 14:00:26 78° 256° (WSW) 14:05:16 437.505
STARS 22 Apr 14:17:42 14:20:24 16° 88° (E) 14:23:17 437.465
HORYU 2 22 Apr 14:28:08 14:32:10 35° 108° (ESE) 14:36:17 437.375
KKS-1 22 Apr 14:49:06 14:53:35 65° 79° (E) 14:58:00 437.445
ITUPSAT 1 22 Apr 14:59:15 15:02:48 20° 248° (WSW) 15:06:11 437.325
Cosmos 2504 22 Apr 15:00:00 15:05:25 21° 249° (WSW) 15:10:36 435.465 / 435.565
JAS-2 22 Apr 15:03:36 15:08:32 46° 107° (ESE) 15:13:37 435.910
RS-15 22 Apr 15:12:19 15:24:34 65° 236° (SW) 15:36:39 29.354- 29.394
AO-7 22 Apr 15:17:49 15:26:11 83° 108° (ESE) 15:34:41 29.400- 29.500
CUSAT 1 22 Apr 15:49:16 15:54:45 22° 89° (E) 15:59:59 437.405
STARS 22 Apr 15:52:56 15:57:03 37° 252° (WSW) 16:01:05 437.465
DANDE 22 Apr 16:03:54 16:10:07 25° 90° (E) 16:16:00 436.750
HORYU 2 22 Apr 16:05:49 16:08:57 18° 273° (W) 16:11:57 437.375
CUTE-I 22 Apr 16:11:49 16:13:04 11° 117° (ESE) 16:14:41 437.470
GONETS M04 22 Apr 16:15:41 16:24:21 69° 86° (E) 16:33:06
Cubesat XI-IV 22 Apr 16:19:02 16:21:29 14° 116° (ESE) 16:24:14 437.490
VERMONT LUNAR 22 Apr 16:24:20 16:27:02 23° 33° (NNE) 16:29:47 437.305
KKS-1 22 Apr 16:28:41 16:29:43 11° 246° (WSW) 16:30:30 437.445
